Regional Weather Roundup
Issued by NWS

Home | Current Version | Previous Version | Text Only | Print | Product List | Glossary Off
Versions: 1 2 3 4 5 6 7 8 9 10 11 12 13 14 15 16 17 18 19 20 21 22 23 24 25 26 27 28 29 30 31 32 33 34 35 36 37 38 39 40 41 42 43 44 45 46 47 48 49 50

000
ASUS45 KBOU 240507
RWRCO

WEATHER ROUNDUP FOR COLORADO
NATIONAL WEATHER SERVICE DENVER/BOULDER CO
1100 PM MDT SUN APR 23 2017

NOTE: "FAIR" INDICATES FEW OR NO CLOUDS BELOW 12000 FEET WITH NO
SIGNIFICANT WEATHER AND/OR OBSTRUCTIONS TO VISIBILITY.

COZ001>005-013-030-031-240600-
...NORTHWEST COLORADO...

CITY           SKY/WX    TMP DP  RH WIND       PRES   REMARKS
CRAIG          CLOUDY    53  32  44 CALM      29.82R
HAYDEN         FAIR      54  27  35 NW17G32   29.82R
MEEKER         CLOUDY    56  28  34 NW15G30   29.82R
MOUNT WERNER   NOT AVBL
STEAMBOAT SPGS CLOUDY    49  30  47 W5        29.80R
WALDEN           N/A     41  25  52 SW6       29.84F
$$

COZ006>008-011-240600-
...WEST CENTRAL VALLEYS...

CITY           SKY/WX    TMP DP  RH WIND       PRES   REMARKS
GRAND JUNCTION FAIR      62  29  28 W17       29.70R
MONTROSE       FAIR      63  20  19 S15       29.76S
EAGLE          FAIR      51  25  36 E8        29.78F
RIFLE          FAIR      57  28  33 E8        29.70F
DELTA          FAIR      61  21  21 NE5       29.72S
NUCLA          FAIR      63  12  14 SW13      29.80F
$$

COZ017>023-064>068-240600-
...SOUTHWEST COLORADO...

CITY           SKY/WX    TMP DP  RH WIND       PRES   REMARKS
DURANGO        FAIR      55  19  24 W6        29.89S
CORTEZ         FAIR      54  23  30 SW7       29.85R
PAGOSA SPRINGS FAIR      54  20  26 SW3       29.95F
TELLURIDE      FAIR      54  15  21 SW16G26   29.99S
WOLF CREEK PAS CLOUDY    36  19  51 SW17G29   30.17F
$$

COZ009-010-012-014-032>034-037-058>063-240600-
...CENTRAL COLORADO...

CITY           SKY/WX    TMP DP  RH WIND       PRES   REMARKS
ASPEN          FAIR      53  19  26 SE12G17   29.83F
BUENA VISTA    FAIR      47  15  28 CALM      29.87F
COPPER MTN     FAIR      41  14  33 S22G28    30.06F
BERTHOUD PASS  FAIR      32  21  64 W22G30    30.05F WCI  19
COTTONWOOD PAS FAIR      50  10  20 S7        29.97F
GUNNISON       FAIR      43  22  43 N6        29.89F
KREMMLING      FAIR      50  27  40 CALM      29.81F
LEADVILLE      FAIR      40  12  32 SE3       29.94F
MONARCH PASS   FAIR      36  16  44 SW26G35   30.17F
SALIDA         FAIR      51  17  26 W8        29.93F
SUNLIGHT       CLOUDY    37  19  48 SW13G21   29.99F
WILKERSON PASS FAIR      37  12  35 SW10G18   30.05F
$$

COZ069>075-240600-
...SAN LUIS VALLEY/SANGRE DE CRISTO MOUNTAINS...

CITY           SKY/WX    TMP DP  RH WIND       PRES   REMARKS
ALAMOSA        FAIR      52  28  39 S13       29.89F
LA VETA PASS   FAIR      45  27  49 S24G45    30.09F
SAGUACHE       FAIR      43  18  36 N7        29.90S
$$

COZ035-036-038>040-240600-
...NORTHERN COLORADO FRONT RANGE...

CITY           SKY/WX    TMP DP  RH WIND       PRES   REMARKS
DENVER INTL AP MOCLDY    54  40  59 W8        29.67F
DMNS CITY PARK   N/A     56  39  54 E8        29.67F
AURORA         MOCLDY    55  36  48 W7        29.70F
FRONT RANGE AP NOT AVBL
ERIE MUNI ARPT FAIR      51  41  69 SW3       29.66F
BOULDER MUN AP FAIR      57  30  35 SW5       29.66F
CENTENNIAL     FAIR      54  35  48 W6        29.71F
BROOMFIELD     NOT AVBL
FORT COLLINS   FAIR      51  42  71 N10       29.65F
LONGMONT       FAIR      51  38  61 W5        29.67F
$$

COZ041-046-047-076>085-087-088-240600-
...PIKES PEAK/PALMER DIVIDE AND SOUTHERN FOOTHILLS...

CITY           SKY/WX    TMP DP  RH WIND       PRES   REMARKS
COLO. SPRINGS  MOCLDY    62  27  26 SW8       29.75F
A. F. ACADEMY  FAIR      49  34  57 N6        29.76F
SCHRIEVER AFB  FAIR      54  33  43 SW7       29.76F
ELLICOTT       FAIR       1  32 100 NW5       29.75F WCI  -9
FALCON         FAIR      49  33  54 CALM      29.80F
FORT CARSON    FAIR      54  32  43 SE6       29.73F
LIMON          FAIR      46  40  79 SE8       29.70F
MONUMENT HILL  FAIR      55  21  26 SW16      29.79F
TRINIDAD       FAIR      61  32  33 S14       29.80S
$$

COZ042>045-048>051-090-091-240600-
...NORTHEAST COLORADO...

CITY           SKY/WX    TMP DP  RH WIND       PRES   REMARKS
GREELEY ARPT   FAIR      52  42  69 NE7       29.65F
AKRON          FAIR      50  39  66 SE10      29.63F
BURLINGTON     NOT AVBL
WRAY           NOT AVBL
STERLING       FAIR      59  41  51 S12       29.61F
HOLYOKE        FAIR      55  41  58 S13       29.65F
FORT MORGAN    FAIR      52  39  61 E8        29.62F
$$

COZ086-089-092>099-240600-
...SOUTHEAST COLORADO...

CITY           SKY/WX    TMP DP  RH WIND       PRES   REMARKS
PUEBLO         FAIR      52  43  71 NW3       29.68F
LA JUNTA       FAIR      66  37  34 S13       29.67F
LAMAR          FAIR      62  37  39 S26G35    29.64F
SPRINGFIELD      N/A     57  36  45 S29G36    29.77F
$$



USA.gov is the U.S. government's official web portal to all federal, state and local government web resources and services.